This is the latest recevied weather packets stored in our database for station/object KB3AWQ. If no packets are shown the sender has not sent any weather packets the latest 10 day(s).
| Time | Temp. | Humidity | Pressure | Rain* | Wind** | Luminosity | Snow |
|---|---|---|---|---|---|---|---|
| 1777573767 | 15° C | 65% | 1009.1 hPa | 0 mm | - | 763 W/m² | - |
| 1777573467 | 15° C | 66% | 1009.2 hPa | 0 mm | - | 452 W/m² | - |
| 1777573167 | 14.44° C | 67% | 1009.2 hPa | 0 mm | - | 405 W/m² | - |
| 1777572867 | 14.44° C | 66% | 1009.2 hPa | 0 mm | - | 339 W/m² | - |
| 1777572567 | 14.44° C | 65% | 1009.3 hPa | 0 mm | - | 214 W/m² | - |
| 1777572267 | 14.44° C | 67% | 1009.3 hPa | 0 mm | - | 211 W/m² | - |
| 1777571967 | 14.44° C | 66% | 1009.2 hPa | 0 mm | - | 379 W/m² | - |
| 1777571667 | 14.44° C | 64% | 1009.2 hPa | 0 mm | - | 364 W/m² | - |
| 1777571370 | 14.44° C | 66% | 1009.3 hPa | 0 mm | - | 301 W/m² | - |
| 1777571066 | 14.44° C | 65% | 1009.3 hPa | 0 mm | - | 286 W/m² | - |
| 1777570767 | 14.44° C | 65% | 1009.3 hPa | 0 mm | - | 189 W/m² | - |
| 1777570469 | 14.44° C | 66% | 1009.3 hPa | 0 mm | - | 177 W/m² | - |
| 1777570167 | 14.44° C | 63% | 1009.4 hPa | 0 mm | - | 172 W/m² | - |
| 1777569866 | 14.44° C | 63% | 1009.4 hPa | 0 mm | - | 190 W/m² | - |
| 1777569567 | 14.44° C | 66% | 1009.4 hPa | 0 mm | - | 172 W/m² | - |
| 1777569267 | 14.44° C | 63% | 1009.4 hPa | 0 mm | - | 182 W/m² | - |
| 1777568967 | 14.44° C | 63% | 1009.4 hPa | 0 mm | - | 202 W/m² | - |
| 1777568667 | 14.44° C | 64% | 1009.4 hPa | 0 mm | - | 213 W/m² | - |
| 1777568366 | 14.44° C | 64% | 1009.5 hPa | 0 mm | - | 234 W/m² | - |
| 1777568066 | 14.44° C | 64% | 1009.5 hPa | 0 mm | - | 206 W/m² | - |
| 1777567767 | 14.44° C | 62% | 1009.5 hPa | 0 mm | - | 213 W/m² | - |
| 1777567467 | 14.44° C | 64% | 1009.5 hPa | 0 mm | - | 210 W/m² | - |
| 1777567167 | 14.44° C | 64% | 1009.6 hPa | 0 mm | - | 189 W/m² | - |
| 1777566867 | 14.44° C | 63% | 1009.6 hPa | 0 mm | - | 156 W/m² | - |
| 1777566567 | 14.44° C | 61% | 1009.5 hPa | 0 mm | - | 160 W/m² | - |
* Rain latest hour (hover to see other rain measurements)
** Current wind speed in m/s (hover to see current wind gust speed)